Home > Weather > Sorocaba > Past weeks

Flag for Brazil Past Weather in Sorocaba, São Paulo, Brazil — Yesterday and Last 2 Weeks

Now
68 °F

Clear.


Feels Like: 68 °F
Forecast: 60 / 83 °F
Wind: 5 mph from East

Location: Campinas Aeroporto

Current Time: Jul 26, 2016 at 11:03:58 PM

Latest Report: Jul 26, 2016 at 10:00 PM


Visibility: 10 mi

Pressure: 30.09 "Hg (28.05 "Hg at 602m altitude)

Humidity: 49%

Dew Point: 48 °F

Location of SorocabaLocation

Past Weather in Sorocaba — Graph

°F

Sorocaba Temperature Yesterday

Maximum temperature yesterday: 82 °F (at 2:00 PM)
Minimum temperature yesterday: 59 °F (at 6:00 AM)
Average temperature yesterday: 70 °F

High & Low Weather Summary for the Past Weeks

 TemperatureHumidityPressure
High86 °F (Jul 12, 2:00 PM)100% (Jul 16, 8:00 PM)30.27 "Hg (Jul 16, 8:00 PM)
Low45 °F (Jul 18, 4:00 AM)20% (Jul 14, 3:00 PM)29.89 "Hg (Jul 16, 5:00 AM)
Average65 °F60%30.11 "Hg
* Reported Jul 11 10:00 PM — Jul 26 10:00 PM, Sorocaba, Weather by CustomWeather, © 2016

Note: Actual official high and low records may vary slightly from our data, if they occured in-between our weather recording intervals... More about our weather records

Advertising

Sorocaba Weather History for the Previous 24 Hours

Scroll right to see more
 ConditionsComfort  
Time TempWeatherWind HumidityBarometerVisibility
10:00 PM
Tue, Jul 26
68 °FClear.5 mph49%30.09 "Hg10 mi
9:00 PM72 °FClear.2 mph38%30.09 "Hg10 mi
8:00 PM73 °FClear.5 mph36%30.09 "Hg10 mi
7:00 PM75 °FClear.2 mph34%30.07 "Hg10 mi
6:00 PM77 °FClear.5 mph32%30.07 "Hg10 mi
5:00 PM81 °FClear.12 mph26%30.04 "Hg10 mi
4:00 PM82 °FSunny.12 mph26%30.04 "Hg10 mi
3:00 PM82 °FSunny.10 mph26%30.07 "Hg10 mi
2:00 PM82 °FSunny.12 mph26%30.07 "Hg10 mi
1:00 PM82 °FSunny.13 mph26%30.09 "Hg10 mi
12:00 PM81 °FPassing clouds.14 mph30%30.15 "HgN/A
11:00 AM75 °FSunny.14 mph39%30.15 "Hg10 mi
10:00 AM73 °FSunny.9 mph38%30.15 "Hg10 mi
9:00 AM70 °FClear.7 mph46%30.15 "Hg5 mi
8:00 AM63 °FClear.No wind64%30.15 "Hg5 mi
7:00 AM59 °FSunny.6 mph68%30.15 "Hg10 mi
6:00 AM59 °FSunny.6 mph72%30.12 "Hg10 mi
5:00 AM59 °FClear.7 mph72%30.09 "Hg10 mi
4:00 AM59 °FClear.6 mph77%30.12 "Hg10 mi
3:00 AM61 °FClear.6 mph72%30.12 "Hg10 mi
2:00 AM63 °FClear.9 mph68%30.12 "Hg10 mi
1:00 AM63 °FClear.8 mph68%30.15 "Hg10 mi
12:00 AM64 °FClear.7 mph68%30.15 "Hg10 mi
11:00 PM
Mon, Jul 25
64 °FClear.9 mph68%30.12 "Hg10 mi
Weather by CustomWeather, © 2016

See weather overviewHow to use our weather pages